Regional Weather Roundup
Issued by NWS

Home | Current Version | Previous Version | Graphics & Text | Print | Product List | Glossary On
Versions: 1 2 3 4 5 6 7 8 9 10 11 12 13 14 15 16 17 18 19 20 21 22 23 24 25 26 27 28 29 30 31 32 33 34 35 36 37 38 39 40 41 42 43 44 45 46 47 48 49 50
000
ASUS43 KDTX 230101
RWRMI
MICHIGAN HOURLY REGIONAL WEATHER ROUNDUP
NATIONAL WEATHER SERVICE DETROIT/PONTIAC MI
800 PM EST WED NOV 22 2017

NOTE: "FAIR" INDICATES FEW OR NO CLOUDS BELOW 12,000 FEET WITH NO
SIGNIFICANT WEATHER AND/OR OBSTRUCTION TO VISIBILITY.

MIZ047>049-052>055-059>063-066>070-074>076-081>083-230200-
SOUTHEAST LOWER MICHIGAN

CITY           SKY/WX    TMP DP  RH WIND       PRES   REMARKS
ADRIAN         CLOUDY    26  19  74 W3        30.25F
ALMA           CLOUDY    29  23  76 S3        30.23R
ANN ARBOR      CLOUDY    25  18  74 CALM      30.24S
BAD AXE        CLOUDY    29  20  68 S3        30.22S
CARO           CLOUDY    26  18  72 CALM      30.22S
DETROIT CITY   PTCLDY    31  16  54 CALM      30.25F
DETROIT        CLOUDY    31  17  56 CALM      30.26F
FLINT          CLOUDY    27  17  66 S5        30.23F WCI  22
GROSSE ILE     PTCLDY    31  19  60 CALM      30.24F
HILLSDALE      CLOUDY    25  19  80 CALM      30.22S
HOWELL         CLOUDY    27  21  78 CALM      30.22S

CITY           SKY/WX    TMP DP  RH WIND       PRES   REMARKS
JACKSON        PTCLDY    28  17  63 SE5       30.23S WCI  23
LAMBERTVILLE   PTCLDY    28  20  71 CALM      30.25F
LANSING        PTCLDY    29  22  75 S3        30.23F
LAPEER         FAIR      27  18  68 SW3       30.23S
MASON          CLOUDY    28  22  78 S3        30.23S
MONROE         PTCLDY    29  21  72 CALM      30.24F
MT. CLEMENS    PTCLDY    25  21  85 CALM      30.23F
PONTIAC        MOCLDY    26  18  71 CALM      30.21F
PORT HOPE        N/A     31  19  61 SW5       30.21R WCI  26
PORT HURON     CLOUDY    28  19  69 CALM      30.24F
TRI CITIES     CLOUDY    29  20  69 S6        30.23S WCI  23
MIDLAND        FAIR      29  19  65 S3        30.21F
TROY           PTCLDY    31  19  61 CALM      30.26S
SAGINAW HB     PTCLDY    28  21  74 S3        30.22F
$$
MIZ043>046-050>051-056>058-064>065-071>073-077>080-230200-
SOUTHWEST LOWER MICHIGAN

CITY           SKY/WX    TMP DP  RH WIND       PRES   REMARKS
BATTLE CREEK   CLOUDY    28  20  71 S3        30.23S
BENTON HARBOR  PTCLDY    29  22  75 SE3       30.24F
BIG RAPIDS     CLOUDY    28  19  68 CALM      30.18F
COLDWATER      CLOUDY    27  20  75 S5        30.22F WCI  22
FREMONT        FAIR      29  22  75 SW3       30.20F
HOLLAND        CLOUDY    31  24  75 SW5       30.23F WCI  26
GRAND RAPIDS   CLOUDY    30  23  75 S6        30.22S WCI  24
IONIA          FAIR      30  21  70 S5        30.21S WCI  25
KALAMAZOO      MOCLDY    30  19  63 W3        30.24S
LUDINGTON      CLOUDY    31  21  65 SW9G17    30.18F WCI  23
MARSHALL       CLOUDY    26  20  78 CALM      30.23S
MOUNT PLEASANT CLOUDY    31  18  60 S3        30.20F
MUSKEGON       CLOUDY    32  22  66 SW6       30.22F WCI  26
SOUTH HAVEN    CLOUDY    32  24  71 S6        30.24S WCI  26
$$
MIZ016>042-230200-
NORTHERN LOWER MICHIGAN

CITY           SKY/WX    TMP DP  RH WIND       PRES   REMARKS
ALPENA         CLOUDY    31  20  63 SW7       30.18F WCI  24
BEAVER ISLAND  CLOUDY    32  24  72 SW9G17    30.12F WCI  24
BELLAIRE       CLOUDY    31  22  70 S7        30.17F WCI  24
CADILLAC       CLOUDY    26  18  72 SW7       30.14S WCI  18
CHARLEVOIX     CLOUDY    31  21  65 S7        30.17F WCI  25
FRANKFORT      CLOUDY    32  22  66 SW9G17    30.16F WCI  24
GAYLORD        CLOUDY    26  16  65 S7        30.13F WCI  18
GRAYLING       CLOUDY    28  17  64 S3        30.16S
HARBOR SPRINGS CLOUDY    31  19  61 S10       30.14F WCI  22
HOUGHTON LAKE  CLOUDY    28  17  63 SW5       30.17S WCI  23
MANISTEE       MOCLDY    29  21  72 S6        30.18F WCI  23
OSCODA         MOCLDY    28  16  59 SW5       30.20S WCI  23
PELLSTON       CLOUDY    30  20  66 S7        30.13F WCI  23
ROGERS CITY    CLOUDY    31  20  64 SW6       30.17F WCI  25
TRAVERSE CITY  CLOUDY    30  18  60 VRB6      30.16F WCI  24
$$
MIZ007>008-015-230200-
EASTERN UPPER MICHIGAN

CITY           SKY/WX    TMP DP  RH WIND       PRES   REMARKS
KINROSS        CLOUDY    27  22  81 SE6       30.11F WCI  20
MACKINAC ISLAN CLOUDY    32  22  66 S12       30.11F WCI  23
NEWBERRY       CLOUDY    26  22  83 S3        30.08F
S. S. MARIE    CLOUDY    26  21  81 SE3       30.11F
MUNISING         N/A     27  20  75 S7        30.09S WCI  19
$$
MIZ004>006-011>014-085-230200-
CENTRAL UPPER MICHIGAN

CITY           SKY/WX    TMP DP  RH WIND       PRES   REMARKS
MANISTIQUE     CLOUDY    29  18  63 SW9G16    30.10F WCI  20
ESCANABA       CLOUDY    28  16  60 SW7       30.12F WCI  21
SAWYER-GWINN   CLOUDY    25  16  68 S7        30.06S WCI  17
$$
MIZ001>003-009>011-084-230200-
WESTERN UPPER MICHIGAN

CITY           SKY/WX    TMP DP  RH WIND       PRES   REMARKS
IRON MOUNTAIN  CLOUDY    26  12  55 S7        30.05F WCI  18
HOUGHTON       CLOUDY    24  13  62 CALM      30.02F
COPPER HARBOR    N/A     27  14  58 VRB7      30.04F WCI  19
IRONWOOD       CLOUDY    22  13  68 VRB6      30.03F WCI  14
$$

ABBREVIATIONS USED IN REMARKS
   TC - TEMPERATURE IN CELSIUS
  WCI - WIND CHILL INDEX
   HX - HEAT INDEX
  VSB - VISIBILITY




USA.gov is the U.S. government's official web portal to all federal, state and local government web resources and services.